SBI7520 HELX-FSIA

Flight info

Callsign SBI7520
Flight time 5h 27m
Altitude 36000
Route HELX N0448F370 LX812 LUGAD DANOG P751 PSD N720 FEREB UV790 SB R775 MANDA UR775 HARGA UM651 MURAL UG651 ALKOS G651 KUSUB UM651 ANVIX UNBED FS601 FSIA
Aircraft B738/M-SDGIWZ/S

Departure

Time 2026-04-17 16:27
Airport Luxor International Airport (HELX)

Arrival

Time 2026-04-17 21:55
Airport Seychelles International Airport (FSIA)
Time Latitude Longitude Altitude Speed Heading
2026-04-17 16:12 25.67271 32.70108 302 ft 0 kts 299°
2026-04-17 16:23 25.67277 32.70087 302 ft 5 kts 271°
2026-04-17 16:23 25.67243 32.70040 302 ft 11 kts 211°
2026-04-17 16:23 25.67159 32.70027 302 ft 14 kts 142°
2026-04-17 16:24 25.67098 32.70141 302 ft 19 kts 116°
2026-04-17 16:24 25.67028 32.70293 302 ft 24 kts 117°
2026-04-17 16:24 25.66897 32.70372 302 ft 23 kts 197°
2026-04-17 16:24 25.66732 32.70298 302 ft 27 kts 202°
2026-04-17 16:25 25.66564 32.70221 302 ft 25 kts 202°
2026-04-17 16:25 25.66412 32.70151 302 ft 23 kts 203°
2026-04-17 16:25 25.66261 32.70081 302 ft 24 kts 202°
2026-04-17 16:25 25.66098 32.70005 302 ft 26 kts 202°
2026-04-17 16:26 25.65944 32.69939 302 ft 20 kts 179°
2026-04-17 16:26 25.65877 32.70036 302 ft 14 kts 92°
2026-04-17 16:26 25.65950 32.70116 302 ft 26 kts 22°
2026-04-17 16:26 25.66339 32.70294 302 ft 93 kts 22°
2026-04-17 16:27 25.67137 32.70663 302 ft 151 kts 22°
2026-04-17 16:27 25.68242 32.71177 360 ft 191 kts 21°
2026-04-17 16:27 25.69528 32.71797 685 ft 211 kts 21°
2026-04-17 16:27 25.70901 32.72424 1295 ft 218 kts 19°
2026-04-17 16:28 25.72311 32.73056 1987 ft 224 kts 20°
2026-04-17 16:28 25.73791 32.73735 2259 ft 244 kts 21°
2026-04-17 16:28 25.75402 32.74480 2801 ft 253 kts 21°
2026-04-17 16:28 25.77022 32.75230 3391 ft 264 kts 21°
2026-04-17 16:29 25.78754 32.76033 3954 ft 275 kts 21°
2026-04-17 16:29 25.80513 32.76850 4690 ft 279 kts 21°
2026-04-17 16:29 25.82331 32.77694 5385 ft 284 kts 21°
2026-04-17 16:29 25.84119 32.78525 6115 ft 286 kts 21°
2026-04-17 16:30 25.85967 32.79384 6804 ft 289 kts 21°
2026-04-17 16:30 25.87818 32.80245 7499 ft 291 kts 21°
2026-04-17 16:30 25.89696 32.81118 8164 ft 294 kts 21°
2026-04-17 16:30 25.91565 32.81987 8809 ft 297 kts 21°
2026-04-17 16:31 25.93486 32.82881 9447 ft 299 kts 21°
2026-04-17 16:31 25.95372 32.83785 10049 ft 302 kts 25°
2026-04-17 16:31 25.97186 32.85099 10287 ft 320 kts 42°
2026-04-17 16:31 25.98578 32.87074 10386 ft 340 kts 62°
2026-04-17 16:32 25.99457 32.89603 10507 ft 358 kts 77°
2026-04-17 16:32 25.99571 32.92383 10722 ft 369 kts 101°
2026-04-17 16:32 25.98715 32.95062 11286 ft 369 kts 120°
2026-04-17 16:32 25.97218 32.97363 11610 ft 374 kts 138°
2026-04-17 16:33 25.95056 32.98886 12192 ft 369 kts 162°
2026-04-17 16:33 25.92568 32.99433 12688 ft 367 kts 179°
2026-04-17 16:33 25.90021 32.99188 13107 ft 367 kts 197°
2026-04-17 16:33 25.87775 32.97933 13549 ft 365 kts 221°
2026-04-17 16:34 25.86133 32.95842 14102 ft 363 kts 237°
2026-04-17 16:34 25.84721 32.93475 14397 ft 370 kts 237°
2026-04-17 16:34 25.83301 32.91103 14888 ft 371 kts 232°
2026-04-17 16:34 25.81386 32.89183 15194 ft 378 kts 211°
2026-04-17 16:35 25.78927 32.88278 15714 ft 381 kts 188°
2026-04-17 16:35 25.76253 32.88510 15998 ft 391 kts 167°
2026-04-17 16:35 25.73675 32.89452 16511 ft 391 kts 163°
2026-04-17 16:35 25.71079 32.90361 16686 ft 398 kts 166°
2026-04-17 16:36 25.68415 32.91168 17179 ft 396 kts 167°
2026-04-17 16:36 25.65745 32.91955 17401 ft 402 kts 168°
2026-04-17 16:36 25.63031 32.92755 17839 ft 402 kts 168°
2026-04-17 16:36 25.60341 32.93538 18154 ft 404 kts 168°
2026-04-17 16:37 25.57638 32.94317 18508 ft 405 kts 168°
2026-04-17 16:37 25.54927 32.95095 18836 ft 407 kts 168°
2026-04-17 16:37 25.52161 32.95887 19154 ft 409 kts 168°
2026-04-17 16:37 25.49430 32.96754 19456 ft 412 kts 164°
2026-04-17 16:38 25.46761 32.97932 19751 ft 417 kts 158°
2026-04-17 16:38 25.44239 32.99498 20033 ft 422 kts 150°
2026-04-17 16:38 25.41803 33.01301 20338 ft 423 kts 149°
2026-04-17 16:38 25.39366 33.03093 20578 ft 426 kts 150°
2026-04-17 16:39 25.36867 33.04899 20852 ft 427 kts 150°
2026-04-17 16:39 25.34401 33.06687 21104 ft 429 kts 150°
2026-04-17 16:39 25.31900 33.08510 21356 ft 431 kts 150°
2026-04-17 16:39 25.29402 33.10333 21603 ft 433 kts 150°
2026-04-17 16:40 25.26884 33.12170 21841 ft 435 kts 150°
2026-04-17 16:40 25.24364 33.14009 22074 ft 436 kts 150°
2026-04-17 16:40 25.21862 33.15835 22301 ft 438 kts 150°
2026-04-17 16:40 25.19328 33.17683 22521 ft 440 kts 150°
2026-04-17 16:41 25.16758 33.19557 22740 ft 441 kts 150°
2026-04-17 16:41 25.14220 33.21407 22952 ft 443 kts 150°
2026-04-17 16:41 25.11635 33.23291 23161 ft 444 kts 150°
2026-04-17 16:41 25.09082 33.25151 23409 ft 445 kts 150°
2026-04-17 16:42 25.06508 33.27026 23642 ft 445 kts 150°
2026-04-17 16:42 25.03922 33.28909 23868 ft 446 kts 150°
2026-04-17 16:42 25.01347 33.30782 24094 ft 446 kts 150°
2026-04-17 16:42 24.98753 33.32669 24308 ft 447 kts 150°
2026-04-17 16:43 24.96145 33.34564 24523 ft 447 kts 150°
2026-04-17 16:43 24.93549 33.36451 24683 ft 449 kts 149°
2026-04-17 16:43 24.90970 33.38322 24830 ft 451 kts 149°
2026-04-17 16:43 24.88331 33.40238 24995 ft 452 kts 149°
2026-04-17 16:44 24.85727 33.42127 25137 ft 454 kts 149°
2026-04-17 16:44 24.83078 33.44047 25287 ft 455 kts 149°
2026-04-17 16:44 24.80450 33.45951 25424 ft 457 kts 149°
2026-04-17 16:44 24.77806 33.47865 25570 ft 458 kts 149°
2026-04-17 16:45 24.75159 33.49781 25718 ft 459 kts 149°
2026-04-17 16:45 24.72492 33.51711 25860 ft 460 kts 149°
2026-04-17 16:45 24.69822 33.53642 26001 ft 461 kts 149°
2026-04-17 16:45 24.67132 33.55586 26141 ft 462 kts 149°
2026-04-17 16:46 24.64446 33.57526 26275 ft 463 kts 149°
2026-04-17 16:46 24.61788 33.59446 26404 ft 464 kts 149°
2026-04-17 16:46 24.59068 33.61408 26538 ft 465 kts 149°
2026-04-17 16:46 24.56390 33.63340 26672 ft 466 kts 149°
2026-04-17 16:47 24.53662 33.65306 26796 ft 467 kts 150°
2026-04-17 16:47 24.50971 33.67245 26915 ft 467 kts 150°
2026-04-17 16:47 24.48242 33.69210 27013 ft 468 kts 150°
2026-04-17 16:47 24.45544 33.71153 27120 ft 469 kts 150°
2026-04-17 16:48 24.42816 33.73114 27227 ft 470 kts 150°
2026-04-17 16:48 24.40093 33.75073 27329 ft 471 kts 150°
2026-04-17 16:48 24.37347 33.77046 27429 ft 472 kts 150°
2026-04-17 16:48 24.34602 33.79017 27531 ft 472 kts 150°
2026-04-17 16:49 24.31874 33.80975 27623 ft 473 kts 150°
2026-04-17 16:49 24.29144 33.82934 27721 ft 474 kts 150°
2026-04-17 16:49 24.26368 33.84924 27811 ft 474 kts 150°
2026-04-17 16:49 24.23619 33.86895 27905 ft 475 kts 150°
2026-04-17 16:50 24.20869 33.88864 27990 ft 476 kts 150°
2026-04-17 16:50 24.18105 33.90844 28078 ft 476 kts 150°
2026-04-17 16:50 24.12553 33.94814 28244 ft 478 kts 150°
2026-04-17 16:51 24.07003 33.98781 28405 ft 479 kts 150°
2026-04-17 16:51 24.01464 34.02735 28557 ft 480 kts 150°
2026-04-17 16:52 23.95878 34.06718 28724 ft 481 kts 150°
2026-04-17 16:52 23.90269 34.10715 28883 ft 482 kts 150°
2026-04-17 16:53 23.84678 34.14693 29032 ft 482 kts 150°
2026-04-17 16:53 23.79076 34.18681 29226 ft 482 kts 150°
2026-04-17 16:54 23.76297 34.20675 29357 ft 481 kts 149°
2026-04-17 16:54 23.73490 34.22690 29451 ft 481 kts 150°
2026-04-17 16:54 23.70709 34.24683 29559 ft 481 kts 150°
2026-04-17 16:54 23.67919 34.26680 29662 ft 480 kts 150°
2026-04-17 16:55 23.62373 34.30646 29854 ft 480 kts 150°
2026-04-17 16:55 23.56817 34.34615 30032 ft 480 kts 150°
2026-04-17 16:56 23.54035 34.36601 30158 ft 479 kts 150°
2026-04-17 16:56 23.51254 34.38585 30239 ft 479 kts 150°
2026-04-17 16:56 23.45689 34.42552 30435 ft 478 kts 150°
2026-04-17 16:57 23.40150 34.46497 30611 ft 478 kts 150°
2026-04-17 16:57 23.34608 34.50439 30784 ft 478 kts 150°
2026-04-17 16:58 23.29043 34.54394 30959 ft 478 kts 150°
2026-04-17 16:58 23.23521 34.58314 31130 ft 477 kts 150°
2026-04-17 16:59 23.17971 34.62250 31296 ft 477 kts 150°
2026-04-17 16:59 23.12439 34.66170 31460 ft 477 kts 150°
2026-04-17 17:00 23.06903 34.70087 31596 ft 476 kts 150°
2026-04-17 17:00 23.01369 34.74000 31829 ft 474 kts 150°
2026-04-17 17:01 22.98611 34.75951 32051 ft 470 kts 150°
2026-04-17 17:01 22.95891 34.77871 32182 ft 468 kts 150°
2026-04-17 17:01 22.93172 34.79791 32335 ft 465 kts 150°
2026-04-17 17:01 22.90474 34.81694 32459 ft 464 kts 149°
2026-04-17 17:02 22.85100 34.85482 32586 ft 463 kts 149°
2026-04-17 17:02 22.79727 34.89266 32685 ft 464 kts 149°
2026-04-17 17:03 22.74336 34.93059 32785 ft 464 kts 149°
2026-04-17 17:03 22.68938 34.96854 32886 ft 464 kts 149°
2026-04-17 17:04 22.63527 35.00654 32986 ft 465 kts 149°
2026-04-17 17:04 22.58121 35.04447 33086 ft 465 kts 149°
2026-04-17 17:05 22.52717 35.08235 33187 ft 465 kts 149°
2026-04-17 17:05 22.47281 35.12041 33289 ft 465 kts 149°
2026-04-17 17:06 22.41896 35.15809 33394 ft 465 kts 149°
2026-04-17 17:06 22.36451 35.19615 33495 ft 465 kts 149°
2026-04-17 17:07 22.31033 35.23399 33597 ft 465 kts 149°
2026-04-17 17:07 22.25648 35.27155 33697 ft 465 kts 149°
2026-04-17 17:08 22.20217 35.30941 33799 ft 465 kts 149°
2026-04-17 17:08 22.14780 35.34727 33902 ft 465 kts 149°
2026-04-17 17:09 22.09390 35.38477 34001 ft 465 kts 149°
2026-04-17 17:09 22.03952 35.42256 34102 ft 464 kts 149°
2026-04-17 17:10 21.98552 35.46010 34202 ft 464 kts 149°
2026-04-17 17:10 21.93178 35.49795 34304 ft 464 kts 148°
2026-04-17 17:11 21.87819 35.53569 34408 ft 463 kts 148°
2026-04-17 17:11 21.82441 35.57346 34510 ft 462 kts 148°
2026-04-17 17:12 21.77055 35.61127 34611 ft 462 kts 148°
2026-04-17 17:12 21.71716 35.64871 34711 ft 461 kts 148°
2026-04-17 17:13 21.66359 35.68624 34811 ft 460 kts 149°
2026-04-17 17:13 21.61017 35.72364 34911 ft 459 kts 149°
2026-04-17 17:14 21.55677 35.76098 35011 ft 458 kts 149°
2026-04-17 17:15 21.47705 35.81667 35161 ft 457 kts 149°
2026-04-17 17:15 21.42418 35.85356 35260 ft 456 kts 149°
2026-04-17 17:16 21.37133 35.89041 35360 ft 455 kts 149°
2026-04-17 17:16 21.31822 35.92740 35461 ft 454 kts 149°
2026-04-17 17:17 21.26549 35.96410 35561 ft 453 kts 149°
2026-04-17 17:17 21.21316 36.00048 35660 ft 452 kts 149°
2026-04-17 17:18 21.16040 36.03714 35761 ft 451 kts 149°
2026-04-17 17:18 21.10812 36.07342 35861 ft 450 kts 149°
2026-04-17 17:19 21.05597 36.10959 35961 ft 449 kts 149°
2026-04-17 17:19 21.00381 36.14573 36062 ft 447 kts 148°
2026-04-17 17:20 20.95175 36.18178 36162 ft 446 kts 148°
2026-04-17 17:20 20.90011 36.21751 36261 ft 444 kts 148°
2026-04-17 17:21 20.84840 36.25325 36360 ft 443 kts 148°
2026-04-17 17:21 20.79680 36.28888 36460 ft 441 kts 148°
2026-04-17 17:22 20.74561 36.32420 36560 ft 440 kts 148°
2026-04-17 17:22 20.69433 36.35955 36661 ft 438 kts 148°
2026-04-17 17:23 20.64336 36.39466 36752 ft 437 kts 148°
2026-04-17 17:23 20.59261 36.42958 36750 ft 438 kts 148°
2026-04-17 17:24 20.54156 36.46469 36750 ft 439 kts 148°
2026-04-17 17:24 20.49022 36.49996 36750 ft 440 kts 148°
2026-04-17 17:25 20.43895 36.53516 36750 ft 441 kts 148°
2026-04-17 17:25 20.38745 36.57050 36749 ft 442 kts 148°
2026-04-17 17:26 20.33581 36.60590 36750 ft 443 kts 148°
2026-04-17 17:26 20.28425 36.64121 36749 ft 443 kts 148°
2026-04-17 17:27 20.23254 36.67660 36750 ft 444 kts 148°
2026-04-17 17:27 20.18065 36.71208 36749 ft 444 kts 148°
2026-04-17 17:28 20.12889 36.74744 36750 ft 445 kts 148°
2026-04-17 17:28 20.07697 36.78289 36750 ft 445 kts 148°
2026-04-17 17:29 20.02497 36.81836 36749 ft 446 kts 148°
2026-04-17 17:29 19.97300 36.85378 36750 ft 446 kts 148°
2026-04-17 17:30 19.92073 36.88938 36750 ft 447 kts 149°
2026-04-17 17:30 19.86872 36.92478 36749 ft 447 kts 148°
2026-04-17 17:31 19.81658 36.96024 36749 ft 447 kts 148°
2026-04-17 17:31 19.76423 36.99580 36749 ft 448 kts 148°
2026-04-17 17:32 19.71212 37.03118 36750 ft 448 kts 148°
2026-04-17 17:32 19.65963 37.06679 36750 ft 449 kts 148°
2026-04-17 17:33 19.60723 37.10231 36749 ft 449 kts 148°
2026-04-17 17:33 19.55486 37.13777 36750 ft 449 kts 148°
2026-04-17 17:34 19.50222 37.17340 36749 ft 450 kts 148°
2026-04-17 17:34 19.44959 37.20899 36750 ft 451 kts 148°
2026-04-17 17:35 19.39735 37.24510 36747 ft 452 kts 144°
2026-04-17 17:35 19.34908 37.28778 36750 ft 453 kts 140°
2026-04-17 17:36 19.30128 37.33052 36750 ft 453 kts 141°
2026-04-17 17:36 19.25303 37.37328 36749 ft 453 kts 141°
2026-04-17 17:37 19.20499 37.41592 36750 ft 454 kts 141°
2026-04-17 17:37 19.15678 37.45866 36750 ft 454 kts 141°
2026-04-17 17:38 19.10846 37.50146 36749 ft 455 kts 141°
2026-04-17 17:38 19.06008 37.54428 36749 ft 455 kts 141°
2026-04-17 17:39 19.01160 37.58714 36750 ft 456 kts 140°
2026-04-17 17:39 18.96288 37.63019 36749 ft 456 kts 140°
2026-04-17 17:40 18.91432 37.67306 36749 ft 455 kts 140°
2026-04-17 17:40 18.86618 37.71552 36749 ft 453 kts 140°
2026-04-17 17:41 18.81817 37.75784 36750 ft 452 kts 140°
2026-04-17 17:41 18.77006 37.80022 36750 ft 452 kts 140°
2026-04-17 17:42 18.72190 37.84259 36750 ft 452 kts 140°
2026-04-17 17:42 18.67359 37.88508 36750 ft 452 kts 140°
2026-04-17 17:43 18.62547 37.92736 36750 ft 452 kts 140°
2026-04-17 17:43 18.57762 37.96938 36750 ft 452 kts 140°
2026-04-17 17:44 18.52951 38.01182 36749 ft 452 kts 140°
2026-04-17 17:44 18.48144 38.05435 36750 ft 452 kts 140°
2026-04-17 17:45 18.43343 38.09673 36750 ft 452 kts 140°
2026-04-17 17:45 18.38537 38.13913 36750 ft 453 kts 140°
2026-04-17 17:46 18.33720 38.18160 36749 ft 453 kts 140°
2026-04-17 17:46 18.28911 38.22396 36750 ft 453 kts 140°
2026-04-17 17:47 18.24096 38.26634 36750 ft 453 kts 140°
2026-04-17 17:47 18.19260 38.30888 36750 ft 453 kts 140°
2026-04-17 17:48 18.14449 38.35115 36749 ft 453 kts 140°
2026-04-17 17:48 18.09631 38.39347 36750 ft 452 kts 140°
2026-04-17 17:49 18.04830 38.43560 36750 ft 452 kts 140°
2026-04-17 17:49 18.00023 38.47776 36750 ft 452 kts 140°
2026-04-17 17:50 17.95210 38.51993 36750 ft 452 kts 140°
2026-04-17 17:50 17.90374 38.56228 36762 ft 452 kts 140°
2026-04-17 17:51 17.85568 38.60432 36852 ft 450 kts 140°
2026-04-17 17:51 17.80787 38.64612 36985 ft 447 kts 140°
2026-04-17 17:52 17.76059 38.68743 37104 ft 445 kts 140°
2026-04-17 17:52 17.71300 38.72898 37061 ft 447 kts 140°
2026-04-17 17:53 17.66522 38.77066 36974 ft 450 kts 140°
2026-04-17 17:53 17.61726 38.81248 36884 ft 452 kts 140°
2026-04-17 17:54 17.56879 38.85470 36833 ft 452 kts 140°
2026-04-17 17:54 17.52069 38.89658 36830 ft 452 kts 140°
2026-04-17 17:55 17.47265 38.93836 36831 ft 452 kts 140°
2026-04-17 17:55 17.42416 38.98052 36831 ft 453 kts 140°
2026-04-17 17:56 17.37577 39.02235 36831 ft 453 kts 140°
2026-04-17 17:56 17.32717 39.06428 36831 ft 454 kts 140°
2026-04-17 17:57 17.27881 39.10600 36831 ft 455 kts 140°
2026-04-17 17:57 17.23004 39.14805 36831 ft 455 kts 140°
2026-04-17 17:58 17.18136 39.18999 36831 ft 456 kts 140°
2026-04-17 17:58 17.13242 39.23212 36831 ft 456 kts 140°
2026-04-17 17:59 17.08376 39.27398 36831 ft 457 kts 140°
2026-04-17 17:59 17.03493 39.31596 36830 ft 452 kts 139°
2026-04-17 18:00 16.98689 39.35724 36830 ft 446 kts 139°
2026-04-17 18:00 16.93955 39.39787 36830 ft 441 kts 139°
2026-04-17 18:01 16.89213 39.43856 36831 ft 442 kts 139°
2026-04-17 18:01 16.84489 39.47906 36831 ft 442 kts 139°
2026-04-17 18:02 16.79759 39.51960 36831 ft 443 kts 139°
2026-04-17 18:02 16.75000 39.56034 36831 ft 443 kts 139°
2026-04-17 18:03 16.70232 39.60113 36830 ft 444 kts 139°
2026-04-17 18:03 16.65465 39.64189 36830 ft 444 kts 139°
2026-04-17 18:04 16.60722 39.68243 36830 ft 445 kts 140°
2026-04-17 18:04 16.55928 39.72337 36831 ft 445 kts 140°
2026-04-17 18:05 16.51159 39.76407 36830 ft 444 kts 140°
2026-04-17 18:05 16.46416 39.80452 36831 ft 443 kts 140°
2026-04-17 18:06 16.41662 39.84503 36831 ft 443 kts 140°
2026-04-17 18:06 16.36893 39.88565 36831 ft 444 kts 140°
2026-04-17 18:07 16.32149 39.92603 36910 ft 442 kts 140°
2026-04-17 18:07 16.27420 39.96625 36912 ft 443 kts 140°
2026-04-17 18:08 16.22650 40.00680 36912 ft 444 kts 140°
2026-04-17 18:08 16.17873 40.04738 36912 ft 444 kts 140°
2026-04-17 18:09 16.13120 40.08773 36912 ft 445 kts 140°
2026-04-17 18:09 16.08331 40.12837 36911 ft 445 kts 140°
2026-04-17 18:10 16.03549 40.16890 36911 ft 443 kts 140°
2026-04-17 18:10 15.98795 40.20919 36912 ft 443 kts 140°
2026-04-17 18:11 15.94046 40.24941 36912 ft 444 kts 140°
2026-04-17 18:11 15.89272 40.28981 36912 ft 444 kts 140°
2026-04-17 18:12 15.84483 40.33030 36912 ft 444 kts 140°
2026-04-17 18:12 15.79720 40.37055 36912 ft 444 kts 140°
2026-04-17 18:13 15.74973 40.41065 36912 ft 444 kts 140°
2026-04-17 18:13 15.70205 40.45089 36912 ft 443 kts 140°
2026-04-17 18:14 15.65437 40.49112 36912 ft 443 kts 140°
2026-04-17 18:14 15.60675 40.53126 36912 ft 443 kts 140°
2026-04-17 18:15 15.55884 40.57163 36912 ft 443 kts 140°
2026-04-17 18:15 15.51146 40.61153 36912 ft 443 kts 140°
2026-04-17 18:16 15.46366 40.65175 36912 ft 443 kts 140°
2026-04-17 18:16 15.41591 40.69190 36912 ft 443 kts 140°
2026-04-17 18:17 15.36835 40.73187 36912 ft 443 kts 140°
2026-04-17 18:17 15.29661 40.79213 36912 ft 443 kts 140°
2026-04-17 18:18 15.24909 40.83201 36912 ft 443 kts 140°
2026-04-17 18:18 15.20117 40.87220 36912 ft 443 kts 140°
2026-04-17 18:19 15.15366 40.91202 36912 ft 443 kts 140°
2026-04-17 18:19 15.10576 40.95214 36912 ft 442 kts 140°
2026-04-17 18:20 15.05806 40.99208 36912 ft 442 kts 140°
2026-04-17 18:20 15.01055 41.03182 36912 ft 442 kts 139°
2026-04-17 18:21 14.96314 41.07140 36912 ft 440 kts 139°
2026-04-17 18:21 14.91563 41.11105 36911 ft 437 kts 139°
2026-04-17 18:22 14.86883 41.15008 36829 ft 434 kts 139°
2026-04-17 18:22 14.82210 41.18903 36831 ft 433 kts 139°
2026-04-17 18:23 14.77530 41.22803 36831 ft 434 kts 139°
2026-04-17 18:23 14.72848 41.26702 36831 ft 435 kts 139°
2026-04-17 18:24 14.68158 41.30605 36831 ft 436 kts 139°
2026-04-17 18:24 14.63440 41.34530 36830 ft 435 kts 139°
2026-04-17 18:25 14.58751 41.38428 36831 ft 434 kts 139°
2026-04-17 18:25 14.54062 41.42323 36831 ft 434 kts 139°
2026-04-17 18:26 14.49363 41.46226 36831 ft 434 kts 139°
2026-04-17 18:26 14.44670 41.50120 36831 ft 435 kts 139°
2026-04-17 18:27 14.39996 41.53997 36831 ft 435 kts 139°
2026-04-17 18:27 14.35301 41.57889 36831 ft 435 kts 139°
2026-04-17 18:28 14.30585 41.61796 36831 ft 435 kts 139°
2026-04-17 18:28 14.25886 41.65687 36831 ft 435 kts 139°
2026-04-17 18:29 14.21199 41.69566 36830 ft 435 kts 139°
2026-04-17 18:29 14.16514 41.73441 36831 ft 434 kts 139°
2026-04-17 18:30 14.11813 41.77327 36831 ft 434 kts 139°
2026-04-17 18:30 14.07123 41.81202 36831 ft 434 kts 139°
2026-04-17 18:31 14.02428 41.85079 36831 ft 434 kts 139°
2026-04-17 18:31 13.97731 41.88955 36831 ft 434 kts 139°
2026-04-17 18:32 13.93042 41.92823 36831 ft 434 kts 139°
2026-04-17 18:32 13.88345 41.96695 36843 ft 434 kts 139°
2026-04-17 18:33 13.83650 42.00564 36870 ft 434 kts 139°
2026-04-17 18:33 13.78941 42.04442 36896 ft 434 kts 139°
2026-04-17 18:34 13.74243 42.08310 36911 ft 434 kts 139°
2026-04-17 18:34 13.69551 42.12170 36912 ft 434 kts 139°
2026-04-17 18:35 13.64827 42.16053 36912 ft 434 kts 139°
2026-04-17 18:35 13.60115 42.19896 36912 ft 434 kts 139°
2026-04-17 18:36 13.55415 42.23723 36912 ft 434 kts 139°
2026-04-17 18:36 13.50694 42.27568 36912 ft 434 kts 139°
2026-04-17 18:37 13.45983 42.31403 36912 ft 434 kts 139°
2026-04-17 18:37 13.41250 42.35254 36912 ft 434 kts 139°
2026-04-17 18:38 13.36556 42.39072 36912 ft 434 kts 139°
2026-04-17 18:38 13.31818 42.42922 36912 ft 434 kts 139°
2026-04-17 18:39 13.27112 42.46746 36912 ft 434 kts 139°
2026-04-17 18:39 13.22381 42.50588 36912 ft 434 kts 139°
2026-04-17 18:40 13.17683 42.54401 36912 ft 434 kts 139°
2026-04-17 18:40 13.12945 42.58244 36912 ft 434 kts 139°
2026-04-17 18:41 13.08127 42.61932 36911 ft 436 kts 145°
2026-04-17 18:41 13.02664 42.64582 36914 ft 441 kts 159°
2026-04-17 18:42 12.96820 42.66469 36912 ft 442 kts 159°
2026-04-17 18:42 12.90982 42.68438 36912 ft 443 kts 159°
2026-04-17 18:43 12.85159 42.70364 36912 ft 442 kts 159°
2026-04-17 18:43 12.79326 42.72287 36912 ft 442 kts 159°
2026-04-17 18:44 12.73495 42.74202 36912 ft 442 kts 159°
2026-04-17 18:44 12.67621 42.76129 36912 ft 442 kts 159°
2026-04-17 18:45 12.61820 42.78028 36912 ft 442 kts 159°
2026-04-17 18:45 12.55949 42.79891 36912 ft 442 kts 161°
2026-04-17 18:46 12.50054 42.81581 36912 ft 442 kts 161°
2026-04-17 18:46 12.44142 42.83308 36912 ft 443 kts 161°
2026-04-17 18:47 12.38271 42.85023 36912 ft 443 kts 161°
2026-04-17 18:47 12.32343 42.86756 36912 ft 443 kts 161°
2026-04-17 18:48 12.26457 42.88476 36912 ft 443 kts 161°
2026-04-17 18:48 12.20568 42.90197 36912 ft 443 kts 161°
2026-04-17 18:49 12.14674 42.91919 36912 ft 443 kts 161°
2026-04-17 18:49 12.08784 42.93639 36912 ft 443 kts 161°
2026-04-17 18:50 12.02885 42.95361 36912 ft 443 kts 161°
2026-04-17 18:50 11.96981 42.97084 36912 ft 443 kts 161°
2026-04-17 18:51 11.91067 42.98809 36912 ft 442 kts 161°
2026-04-17 18:51 11.85194 43.00521 36912 ft 442 kts 161°
2026-04-17 18:52 11.79294 43.02240 36912 ft 442 kts 161°
2026-04-17 18:52 11.73440 43.03945 36912 ft 441 kts 161°
2026-04-17 18:53 11.67532 43.05666 36912 ft 441 kts 161°
2026-04-17 18:53 11.61652 43.07377 36912 ft 441 kts 161°
2026-04-17 18:54 11.55793 43.09156 36910 ft 439 kts 157°
2026-04-17 18:54 11.50285 43.11666 36912 ft 437 kts 151°
2026-04-17 18:55 11.44799 43.14297 36912 ft 437 kts 152°
2026-04-17 18:55 11.39331 43.16909 36912 ft 436 kts 152°
2026-04-17 18:56 11.33870 43.19582 36912 ft 435 kts 150°
2026-04-17 18:56 11.28487 43.22369 36912 ft 435 kts 150°
2026-04-17 18:57 11.23131 43.25118 36912 ft 435 kts 150°
2026-04-17 18:57 11.17736 43.27887 36912 ft 435 kts 150°
2026-04-17 18:58 11.12350 43.30650 36912 ft 435 kts 150°
2026-04-17 18:58 11.06962 43.33414 36912 ft 435 kts 150°
2026-04-17 18:59 11.01559 43.36183 36912 ft 435 kts 150°
2026-04-17 18:59 10.96191 43.38934 36912 ft 435 kts 151°
2026-04-17 19:00 10.90801 43.41695 36912 ft 435 kts 152°
2026-04-17 19:00 10.85414 43.44452 36912 ft 436 kts 152°
2026-04-17 19:01 10.80017 43.47213 36912 ft 437 kts 152°
2026-04-17 19:01 10.74600 43.49984 36911 ft 436 kts 152°
2026-04-17 19:02 10.69182 43.52753 36912 ft 436 kts 152°
2026-04-17 19:02 10.63790 43.55510 36912 ft 436 kts 152°
2026-04-17 19:03 10.58390 43.58269 36912 ft 436 kts 152°
2026-04-17 19:03 10.52961 43.61018 36912 ft 436 kts 153°
2026-04-17 19:04 10.47485 43.63623 36912 ft 436 kts 154°
2026-04-17 19:04 10.42037 43.66230 36912 ft 436 kts 154°
2026-04-17 19:05 10.36590 43.68840 36912 ft 436 kts 154°
2026-04-17 19:05 10.31108 43.71466 36912 ft 436 kts 154°
2026-04-17 19:06 10.25659 43.74077 36912 ft 436 kts 154°
2026-04-17 19:06 10.20200 43.76692 36912 ft 436 kts 154°
2026-04-17 19:07 10.14706 43.79323 36912 ft 436 kts 154°
2026-04-17 19:07 10.09264 43.81928 36912 ft 436 kts 154°
2026-04-17 19:08 10.03773 43.84556 36912 ft 436 kts 154°
2026-04-17 19:08 9.98342 43.87154 36912 ft 436 kts 154°
2026-04-17 19:09 9.92867 43.89773 36912 ft 436 kts 154°
2026-04-17 19:09 9.87393 43.92390 36912 ft 436 kts 154°
2026-04-17 19:10 9.81928 43.95001 36912 ft 436 kts 154°
2026-04-17 19:10 9.76458 43.97614 36912 ft 436 kts 154°
2026-04-17 19:11 9.70992 44.00225 36912 ft 436 kts 154°
2026-04-17 19:11 9.65534 44.02830 36912 ft 436 kts 154°
2026-04-17 19:12 9.60072 44.05436 36912 ft 436 kts 154°
2026-04-17 19:12 9.54625 44.08110 36911 ft 435 kts 150°
2026-04-17 19:13 9.49682 44.11552 36914 ft 434 kts 138°
2026-04-17 19:13 9.45138 44.15549 36912 ft 434 kts 139°
2026-04-17 19:14 9.40562 44.19486 36912 ft 434 kts 139°
2026-04-17 19:14 9.35997 44.23466 36912 ft 434 kts 138°
2026-04-17 19:15 9.31426 44.27457 36912 ft 434 kts 138°
2026-04-17 19:15 9.26903 44.31413 36912 ft 434 kts 138°
2026-04-17 19:16 9.22338 44.35408 36912 ft 434 kts 138°
2026-04-17 19:16 9.17797 44.39383 36912 ft 434 kts 138°
2026-04-17 19:17 9.13244 44.43367 36912 ft 434 kts 138°
2026-04-17 19:17 9.08699 44.47346 36912 ft 434 kts 139°
2026-04-17 19:18 9.04135 44.51339 36912 ft 435 kts 139°
2026-04-17 19:18 8.99558 44.55342 36912 ft 437 kts 139°
2026-04-17 19:19 8.94975 44.59349 36912 ft 439 kts 139°
2026-04-17 19:19 8.90353 44.63388 36912 ft 440 kts 139°
2026-04-17 19:20 8.85759 44.67402 36911 ft 439 kts 139°
2026-04-17 19:20 8.81161 44.71418 36912 ft 438 kts 139°
2026-04-17 19:21 8.76559 44.75436 36912 ft 438 kts 139°
2026-04-17 19:21 8.72068 44.79537 36912 ft 438 kts 137°
2026-04-17 19:22 8.67584 44.83720 36912 ft 439 kts 138°
2026-04-17 19:22 8.63121 44.87848 36912 ft 438 kts 138°
2026-04-17 19:23 8.56395 44.94072 36912 ft 437 kts 138°
2026-04-17 19:24 8.51931 44.98198 36912 ft 437 kts 138°
2026-04-17 19:24 8.47458 45.02330 36912 ft 436 kts 138°
2026-04-17 19:25 8.43015 45.06432 36912 ft 435 kts 139°
2026-04-17 19:25 8.38549 45.10556 36912 ft 435 kts 139°
2026-04-17 19:26 8.34084 45.14676 36912 ft 435 kts 139°
2026-04-17 19:26 8.29658 45.18758 36912 ft 435 kts 139°
2026-04-17 19:27 8.25187 45.22882 36912 ft 435 kts 139°
2026-04-17 19:27 8.20731 45.26989 36912 ft 435 kts 139°
2026-04-17 19:28 8.16274 45.31097 36912 ft 435 kts 139°
2026-04-17 19:28 8.11837 45.35185 36912 ft 435 kts 139°
2026-04-17 19:29 8.07366 45.39304 36912 ft 435 kts 139°
2026-04-17 19:29 8.02925 45.43392 36912 ft 435 kts 139°
2026-04-17 19:30 7.98479 45.47485 36912 ft 435 kts 139°
2026-04-17 19:30 7.94024 45.51584 36912 ft 435 kts 139°
2026-04-17 19:31 7.89551 45.55698 36912 ft 435 kts 139°
2026-04-17 19:31 7.85093 45.59797 36912 ft 435 kts 139°
2026-04-17 19:32 7.80648 45.63882 36911 ft 435 kts 139°
2026-04-17 19:32 7.76170 45.67998 36912 ft 435 kts 139°
2026-04-17 19:33 7.71722 45.72084 36912 ft 435 kts 139°
2026-04-17 19:33 7.67256 45.76187 36912 ft 435 kts 139°
2026-04-17 19:34 7.62796 45.80295 36912 ft 435 kts 139°
2026-04-17 19:34 7.58369 45.84375 36912 ft 435 kts 139°
2026-04-17 19:35 7.53918 45.88475 36912 ft 435 kts 139°
2026-04-17 19:35 7.49453 45.92586 36912 ft 435 kts 139°
2026-04-17 19:36 7.45009 45.96677 36912 ft 435 kts 139°
2026-04-17 19:36 7.40544 46.00786 36912 ft 435 kts 139°
2026-04-17 19:37 7.36107 46.04868 36912 ft 435 kts 139°
2026-04-17 19:37 7.31662 46.08957 36912 ft 434 kts 139°
2026-04-17 19:38 7.27198 46.13061 36912 ft 434 kts 139°
2026-04-17 19:38 7.22745 46.17154 36912 ft 435 kts 139°
2026-04-17 19:39 7.18306 46.21233 36912 ft 435 kts 139°
2026-04-17 19:39 7.13844 46.25333 36912 ft 435 kts 139°
2026-04-17 19:40 7.09405 46.29410 36912 ft 435 kts 139°
2026-04-17 19:40 7.04955 46.33496 36912 ft 435 kts 139°
2026-04-17 19:41 7.00518 46.37569 36912 ft 434 kts 139°
2026-04-17 19:41 6.96057 46.41663 36912 ft 432 kts 139°
2026-04-17 19:42 6.91656 46.45701 36912 ft 431 kts 138°
2026-04-17 19:42 6.87229 46.49761 36912 ft 430 kts 138°
2026-04-17 19:43 6.82835 46.53789 36912 ft 430 kts 138°
2026-04-17 19:43 6.78406 46.57848 36912 ft 430 kts 138°
2026-04-17 19:44 6.74012 46.61876 36912 ft 430 kts 138°
2026-04-17 19:44 6.69596 46.65921 36912 ft 430 kts 138°
2026-04-17 19:45 6.65032 46.69774 36912 ft 430 kts 143°
2026-04-17 19:45 6.60317 46.73439 36912 ft 430 kts 142°
2026-04-17 19:46 6.55623 46.77173 36912 ft 430 kts 142°
2026-04-17 19:46 6.50969 46.80865 36911 ft 430 kts 142°
2026-04-17 19:47 6.46273 46.84596 36912 ft 431 kts 142°
2026-04-17 19:47 6.41592 46.88317 36912 ft 432 kts 142°
2026-04-17 19:48 6.36860 46.92078 36912 ft 434 kts 142°
2026-04-17 19:48 6.32170 46.95806 36912 ft 434 kts 142°
2026-04-17 19:49 6.27419 46.99583 36911 ft 435 kts 142°
2026-04-17 19:49 6.22688 47.03342 36912 ft 436 kts 142°
2026-04-17 19:50 6.17927 47.07124 36912 ft 437 kts 142°
2026-04-17 19:50 6.13206 47.10873 36911 ft 437 kts 142°
2026-04-17 19:51 6.08438 47.14659 36911 ft 437 kts 142°
2026-04-17 19:51 6.03681 47.18436 36912 ft 437 kts 142°
2026-04-17 19:52 5.98929 47.22208 36912 ft 436 kts 142°
2026-04-17 19:52 5.94186 47.25971 36912 ft 437 kts 142°
2026-04-17 19:53 5.89445 47.29733 36912 ft 437 kts 142°
2026-04-17 19:53 5.84697 47.33498 36911 ft 437 kts 142°
2026-04-17 19:54 5.79955 47.37258 36912 ft 436 kts 142°
2026-04-17 19:54 5.75215 47.41016 36912 ft 436 kts 142°
2026-04-17 19:55 5.70465 47.44781 36912 ft 436 kts 142°
2026-04-17 19:55 5.65734 47.48530 36912 ft 436 kts 142°
2026-04-17 19:56 5.60994 47.52330 36912 ft 436 kts 141°
2026-04-17 19:56 5.56282 47.56128 36912 ft 436 kts 141°
2026-04-17 19:57 5.51577 47.59911 36912 ft 436 kts 141°
2026-04-17 19:57 5.46852 47.63710 36912 ft 436 kts 141°
2026-04-17 19:58 5.42139 47.67499 36912 ft 436 kts 141°
2026-04-17 19:58 5.37429 47.71284 36912 ft 436 kts 141°
2026-04-17 19:59 5.32696 47.75085 36912 ft 436 kts 141°
2026-04-17 19:59 5.27990 47.78865 36912 ft 436 kts 141°
2026-04-17 20:00 5.24064 47.82017 36912 ft 436 kts 141°
2026-04-17 20:00 5.18548 47.86446 36912 ft 436 kts 141°
2026-04-17 20:01 5.13842 47.90223 36912 ft 436 kts 141°
2026-04-17 20:01 5.09122 47.94012 36912 ft 436 kts 141°
2026-04-17 20:02 5.04402 47.97798 36912 ft 437 kts 142°
2026-04-17 20:02 4.99673 48.01592 36912 ft 437 kts 142°
2026-04-17 20:03 4.94908 48.05413 36912 ft 439 kts 142°
2026-04-17 20:03 4.90170 48.09213 36912 ft 439 kts 142°
2026-04-17 20:04 4.85394 48.13042 36912 ft 439 kts 142°
2026-04-17 20:04 4.80653 48.16843 36912 ft 439 kts 142°
2026-04-17 20:05 4.75919 48.20636 36912 ft 439 kts 142°
2026-04-17 20:05 4.71163 48.24447 36912 ft 439 kts 142°
2026-04-17 20:06 4.66396 48.28266 36912 ft 439 kts 142°
2026-04-17 20:06 4.61652 48.32066 36912 ft 439 kts 142°
2026-04-17 20:07 4.56889 48.35880 36912 ft 439 kts 142°
2026-04-17 20:07 4.52155 48.39671 36912 ft 439 kts 142°
2026-04-17 20:08 4.47393 48.43483 36912 ft 439 kts 142°
2026-04-17 20:08 4.42649 48.47280 37001 ft 439 kts 142°
2026-04-17 20:09 4.37880 48.51098 36999 ft 440 kts 142°
2026-04-17 20:09 4.33127 48.54900 36999 ft 439 kts 142°
2026-04-17 20:10 4.28373 48.58704 37000 ft 438 kts 142°
2026-04-17 20:10 4.23630 48.62498 36999 ft 438 kts 142°
2026-04-17 20:11 4.18892 48.66287 36999 ft 438 kts 142°
2026-04-17 20:11 4.14118 48.70086 37000 ft 438 kts 142°
2026-04-17 20:12 4.09362 48.73869 37000 ft 438 kts 142°
2026-04-17 20:12 4.04602 48.77656 36999 ft 438 kts 142°
2026-04-17 20:13 3.99869 48.81421 36999 ft 438 kts 142°
2026-04-17 20:13 3.95098 48.85215 37000 ft 438 kts 142°
2026-04-17 20:14 3.90361 48.88983 36999 ft 438 kts 142°
2026-04-17 20:14 3.85583 48.92782 36999 ft 438 kts 142°
2026-04-17 20:15 3.80843 48.96552 37000 ft 438 kts 142°
2026-04-17 20:15 3.76084 49.00334 37000 ft 438 kts 142°
2026-04-17 20:16 3.71303 49.04135 37000 ft 438 kts 142°
2026-04-17 20:16 3.66541 49.07919 37000 ft 439 kts 142°
2026-04-17 20:17 3.61803 49.11684 36999 ft 439 kts 142°
2026-04-17 20:17 3.57036 49.15471 36999 ft 439 kts 142°
2026-04-17 20:18 3.52251 49.19261 36999 ft 439 kts 142°
2026-04-17 20:18 3.47476 49.23058 36971 ft 439 kts 142°
2026-04-17 20:19 3.42729 49.26837 36942 ft 439 kts 142°
2026-04-17 20:19 3.37964 49.30639 36921 ft 439 kts 142°
2026-04-17 20:20 3.33205 49.34415 36912 ft 438 kts 142°
2026-04-17 20:20 3.28426 49.38187 36912 ft 439 kts 142°
2026-04-17 20:21 3.23646 49.41964 36912 ft 439 kts 142°
2026-04-17 20:21 3.18887 49.45758 36911 ft 439 kts 142°
2026-04-17 20:22 3.14134 49.49543 36911 ft 439 kts 142°
2026-04-17 20:22 3.09385 49.53292 36911 ft 439 kts 142°
2026-04-17 20:23 3.04623 49.57088 36912 ft 438 kts 142°
2026-04-17 20:23 2.99868 49.60865 36912 ft 438 kts 143°
2026-04-17 20:24 2.95079 49.64637 36911 ft 439 kts 144°
2026-04-17 20:24 2.90311 49.68408 36912 ft 441 kts 144°
2026-04-17 20:25 2.85496 49.72208 36912 ft 445 kts 145°
2026-04-17 20:25 2.80679 49.76049 36911 ft 445 kts 144°
2026-04-17 20:26 2.75868 49.79898 36912 ft 443 kts 145°
2026-04-17 20:26 2.71052 49.83689 36912 ft 442 kts 145°
2026-04-17 20:27 2.66300 49.87637 36912 ft 445 kts 143°
2026-04-17 20:27 2.61611 49.91613 36912 ft 445 kts 143°
2026-04-17 20:28 2.56879 49.95560 36913 ft 445 kts 143°
2026-04-17 20:28 2.52149 49.99528 36911 ft 444 kts 143°
2026-04-17 20:29 2.47442 50.03501 36911 ft 445 kts 143°
2026-04-17 20:29 2.42731 50.07466 36911 ft 445 kts 143°
2026-04-17 20:30 2.35647 50.13379 36912 ft 443 kts 143°
2026-04-17 20:30 2.30924 50.17299 36911 ft 444 kts 143°
2026-04-17 20:31 2.26156 50.21253 36911 ft 444 kts 143°
2026-04-17 20:31 2.21450 50.25198 36912 ft 445 kts 143°
2026-04-17 20:32 2.16754 50.29183 36912 ft 444 kts 143°
2026-04-17 20:32 2.12026 50.33158 36912 ft 444 kts 143°
2026-04-17 20:33 2.07311 50.37051 36912 ft 445 kts 143°
2026-04-17 20:33 2.02583 50.41011 36913 ft 445 kts 143°
2026-04-17 20:34 1.97850 50.44997 36910 ft 444 kts 143°
2026-04-17 20:34 1.93113 50.48931 36912 ft 444 kts 143°
2026-04-17 20:35 1.88407 50.52842 36911 ft 443 kts 143°
2026-04-17 20:35 1.83683 50.56821 36912 ft 443 kts 143°
2026-04-17 20:36 1.79006 50.60747 36912 ft 444 kts 143°
2026-04-17 20:36 1.74237 50.64690 36912 ft 444 kts 143°
2026-04-17 20:37 1.69530 50.68615 36912 ft 443 kts 143°
2026-04-17 20:37 1.64806 50.72564 36911 ft 444 kts 143°
2026-04-17 20:38 1.60119 50.76546 36912 ft 443 kts 143°
2026-04-17 20:38 1.55410 50.80500 36912 ft 444 kts 144°
2026-04-17 20:39 1.50686 50.84404 36911 ft 446 kts 143°
2026-04-17 20:39 1.45938 50.88391 36912 ft 445 kts 143°
2026-04-17 20:40 1.41213 50.92337 36912 ft 444 kts 143°
2026-04-17 20:40 1.36503 50.96254 36912 ft 446 kts 143°
2026-04-17 20:41 1.31753 51.00238 36912 ft 448 kts 143°
2026-04-17 20:41 1.26975 51.04232 36911 ft 448 kts 143°
2026-04-17 20:42 1.22219 51.08206 36912 ft 449 kts 143°
2026-04-17 20:42 1.17459 51.12184 36912 ft 450 kts 143°
2026-04-17 20:43 1.12667 51.16188 36912 ft 450 kts 143°
2026-04-17 20:43 1.07876 51.20191 36912 ft 450 kts 143°
2026-04-17 20:44 1.03077 51.24200 36912 ft 450 kts 142°
2026-04-17 20:44 0.98310 51.28183 36912 ft 450 kts 142°
2026-04-17 20:45 0.93506 51.32198 36911 ft 449 kts 142°
2026-04-17 20:45 0.88741 51.36179 36911 ft 449 kts 142°
2026-04-17 20:46 0.83956 51.40176 36912 ft 449 kts 142°
2026-04-17 20:46 0.79174 51.44172 36912 ft 450 kts 142°
2026-04-17 20:47 0.74396 51.48163 36911 ft 449 kts 142°
2026-04-17 20:47 0.69647 51.52130 36911 ft 449 kts 142°
2026-04-17 20:48 0.64865 51.56124 36912 ft 449 kts 142°
2026-04-17 20:48 0.60072 51.60128 36912 ft 449 kts 142°
2026-04-17 20:49 0.55322 51.64097 36912 ft 449 kts 142°
2026-04-17 20:49 0.50536 51.68094 36912 ft 449 kts 142°
2026-04-17 20:50 0.45758 51.72086 36912 ft 449 kts 142°
2026-04-17 20:50 0.41011 51.76050 36912 ft 449 kts 142°
2026-04-17 20:51 0.36239 51.80036 36912 ft 449 kts 142°
2026-04-17 20:51 0.31459 51.84029 36912 ft 449 kts 142°
2026-04-17 20:52 0.26681 51.88020 36912 ft 449 kts 142°
2026-04-17 20:52 0.21899 51.92014 36912 ft 449 kts 142°
2026-04-17 20:53 0.17145 51.95984 36912 ft 449 kts 142°
2026-04-17 20:53 0.12360 51.99980 36912 ft 449 kts 142°
2026-04-17 20:54 0.07603 52.03954 36912 ft 449 kts 142°
2026-04-17 20:54 0.02810 52.07956 36912 ft 449 kts 142°
2026-04-17 20:55 -0.01974 52.11953 36911 ft 449 kts 142°
2026-04-17 20:55 -0.06736 52.15930 36912 ft 449 kts 142°
2026-04-17 20:56 -0.11522 52.19927 36912 ft 449 kts 142°
2026-04-17 20:56 -0.16271 52.23893 36911 ft 449 kts 142°
2026-04-17 20:57 -0.21061 52.27893 36912 ft 449 kts 142°
2026-04-17 20:57 -0.25820 52.31868 36912 ft 449 kts 142°
2026-04-17 20:58 -0.30604 52.35864 36912 ft 449 kts 142°
2026-04-17 20:58 -0.35383 52.39855 36911 ft 449 kts 142°
2026-04-17 20:59 -0.40152 52.43838 36912 ft 449 kts 142°
2026-04-17 20:59 -0.44921 52.47821 36912 ft 449 kts 142°
2026-04-17 21:00 -0.49695 52.51809 36912 ft 448 kts 142°
2026-04-17 21:00 -0.54446 52.55778 36912 ft 448 kts 142°
2026-04-17 21:01 -0.59241 52.59783 36912 ft 448 kts 142°
2026-04-17 21:01 -0.63991 52.63750 36912 ft 449 kts 142°
2026-04-17 21:02 -0.68749 52.67725 36912 ft 448 kts 142°
2026-04-17 21:02 -0.73520 52.71710 36912 ft 448 kts 142°
2026-04-17 21:03 -0.78309 52.75711 36912 ft 448 kts 142°
2026-04-17 21:03 -0.83062 52.79681 36912 ft 448 kts 142°
2026-04-17 21:04 -0.87824 52.83659 36912 ft 447 kts 142°
2026-04-17 21:04 -0.92562 52.87618 36912 ft 445 kts 142°
2026-04-17 21:05 -0.97284 52.91563 36912 ft 442 kts 142°
2026-04-17 21:05 -1.01976 52.95483 36912 ft 440 kts 142°
2026-04-17 21:06 -1.06630 52.99372 36912 ft 438 kts 142°
2026-04-17 21:06 -1.11309 53.03281 36912 ft 437 kts 142°
2026-04-17 21:07 -1.15954 53.07162 36912 ft 437 kts 142°
2026-04-17 21:07 -1.20596 53.11041 36912 ft 437 kts 142°
2026-04-17 21:08 -1.25225 53.14909 36912 ft 437 kts 142°
2026-04-17 21:08 -1.29886 53.18804 36911 ft 437 kts 142°
2026-04-17 21:09 -1.34530 53.22685 36884 ft 437 kts 142°
2026-04-17 21:09 -1.39193 53.26583 36885 ft 437 kts 142°
2026-04-17 21:10 -1.43850 53.30475 36885 ft 437 kts 142°
2026-04-17 21:10 -1.48481 53.34346 36885 ft 438 kts 142°
2026-04-17 21:11 -1.53132 53.38234 36885 ft 438 kts 142°
2026-04-17 21:11 -1.57792 53.42130 36885 ft 438 kts 142°
2026-04-17 21:12 -1.62465 53.46036 36884 ft 437 kts 142°
2026-04-17 21:12 -1.67104 53.49915 36885 ft 437 kts 142°
2026-04-17 21:13 -1.71745 53.53795 36885 ft 437 kts 143°
2026-04-17 21:13 -1.76665 53.57247 36886 ft 434 kts 152°
2026-04-17 21:14 -1.81865 53.60283 36885 ft 434 kts 151°
2026-04-17 21:14 -1.87038 53.63366 36885 ft 434 kts 152°
2026-04-17 21:15 -1.92232 53.66421 36885 ft 434 kts 152°
2026-04-17 21:15 -1.97412 53.69462 36885 ft 434 kts 152°
2026-04-17 21:16 -2.02591 53.72498 36885 ft 434 kts 152°
2026-04-17 21:16 -2.07775 53.75535 36885 ft 434 kts 152°
2026-04-17 21:17 -2.12975 53.78580 36885 ft 434 kts 152°
2026-04-17 21:17 -2.18160 53.81616 36884 ft 434 kts 152°
2026-04-17 21:18 -2.23341 53.84649 36885 ft 434 kts 152°
2026-04-17 21:18 -2.28560 53.87704 36885 ft 434 kts 152°
2026-04-17 21:19 -2.33739 53.90736 36885 ft 434 kts 152°
2026-04-17 21:19 -2.38936 53.93779 36885 ft 434 kts 152°
2026-04-17 21:20 -2.44107 53.96806 36885 ft 434 kts 152°
2026-04-17 21:20 -2.49313 53.99854 36885 ft 434 kts 152°
2026-04-17 21:21 -2.54494 54.02889 36885 ft 434 kts 152°
2026-04-17 21:21 -2.59686 54.05930 36885 ft 434 kts 152°
2026-04-17 21:22 -2.64857 54.08958 36885 ft 434 kts 152°
2026-04-17 21:22 -2.70069 54.12011 36885 ft 434 kts 152°
2026-04-17 21:23 -2.75246 54.15044 36885 ft 434 kts 152°
2026-04-17 21:23 -2.80437 54.18086 36885 ft 434 kts 152°
2026-04-17 21:24 -2.85646 54.21138 36885 ft 434 kts 152°
2026-04-17 21:24 -2.90833 54.24177 36884 ft 435 kts 152°
2026-04-17 21:25 -2.96023 54.27218 36885 ft 438 kts 152°
2026-04-17 21:25 -3.01322 54.30324 36885 ft 443 kts 152°
2026-04-17 21:26 -3.06630 54.33435 36885 ft 446 kts 152°
2026-04-17 21:26 -3.11977 54.36571 36884 ft 445 kts 152°
2026-04-17 21:27 -3.17292 54.39687 36885 ft 444 kts 152°
2026-04-17 21:27 -3.22604 54.42802 36885 ft 444 kts 152°
2026-04-17 21:28 -3.27894 54.45905 36885 ft 444 kts 152°
2026-04-17 21:28 -3.33209 54.49022 36885 ft 444 kts 152°
2026-04-17 21:29 -3.38528 54.52142 36885 ft 444 kts 152°
2026-04-17 21:29 -3.41178 54.53697 36757 ft 442 kts 152°
2026-04-17 21:29 -3.43827 54.55252 36158 ft 441 kts 152°
2026-04-17 21:30 -3.46458 54.56795 35536 ft 439 kts 152°
2026-04-17 21:30 -3.49053 54.58318 35044 ft 434 kts 152°
2026-04-17 21:30 -3.51617 54.59824 34520 ft 431 kts 152°
2026-04-17 21:30 -3.54185 54.61331 33996 ft 427 kts 152°
2026-04-17 21:31 -3.56715 54.62815 33477 ft 424 kts 152°
2026-04-17 21:31 -3.59255 54.64307 32954 ft 420 kts 152°
2026-04-17 21:31 -3.61770 54.65783 32434 ft 417 kts 152°
2026-04-17 21:31 -3.64215 54.67218 31928 ft 414 kts 152°
2026-04-17 21:32 -3.66698 54.68676 31412 ft 410 kts 152°
2026-04-17 21:32 -3.69120 54.70097 30909 ft 407 kts 152°
2026-04-17 21:32 -3.71546 54.71521 30402 ft 403 kts 152°
2026-04-17 21:32 -3.73956 54.72937 29898 ft 400 kts 152°
2026-04-17 21:33 -3.76335 54.74334 29398 ft 397 kts 152°
2026-04-17 21:33 -3.78687 54.75714 28904 ft 394 kts 152°
2026-04-17 21:33 -3.81046 54.77100 28407 ft 391 kts 152°
2026-04-17 21:33 -3.83356 54.78456 27920 ft 388 kts 152°
2026-04-17 21:34 -3.85665 54.79813 27431 ft 385 kts 152°
2026-04-17 21:34 -3.87957 54.81158 26945 ft 382 kts 152°
2026-04-17 21:34 -3.92490 54.83822 25982 ft 376 kts 152°
2026-04-17 21:35 -3.94720 54.85131 25508 ft 373 kts 152°
2026-04-17 21:35 -3.96934 54.86432 25038 ft 370 kts 152°
2026-04-17 21:35 -3.99130 54.87723 24569 ft 367 kts 152°
2026-04-17 21:35 -4.01321 54.89010 24101 ft 364 kts 152°
2026-04-17 21:36 -4.03483 54.90280 23638 ft 362 kts 152°
2026-04-17 21:36 -4.05657 54.91558 23173 ft 359 kts 152°
2026-04-17 21:36 -4.07793 54.92813 22715 ft 356 kts 152°
2026-04-17 21:36 -4.09898 54.94051 22264 ft 354 kts 152°
2026-04-17 21:37 -4.11999 54.95285 21813 ft 351 kts 152°
2026-04-17 21:37 -4.14091 54.96515 21364 ft 348 kts 152°
2026-04-17 21:37 -4.16175 54.97740 20916 ft 346 kts 152°
2026-04-17 21:37 -4.18248 54.98959 20469 ft 344 kts 152°
2026-04-17 21:38 -4.20197 55.00104 20049 ft 341 kts 152°
2026-04-17 21:38 -4.22248 55.01310 19605 ft 339 kts 152°
2026-04-17 21:38 -4.24280 55.02505 19171 ft 343 kts 152°
2026-04-17 21:38 -4.26311 55.03698 18729 ft 342 kts 152°
2026-04-17 21:39 -4.28352 55.04899 18294 ft 340 kts 152°
2026-04-17 21:39 -4.30383 55.06094 17855 ft 337 kts 152°
2026-04-17 21:39 -4.32379 55.07268 17423 ft 335 kts 152°
2026-04-17 21:39 -4.34376 55.08442 16990 ft 332 kts 152°
2026-04-17 21:40 -4.36362 55.09615 16559 ft 330 kts 150°
2026-04-17 21:40 -4.38164 55.11020 16128 ft 330 kts 135°
2026-04-17 21:40 -4.39472 55.12871 15705 ft 330 kts 116°
2026-04-17 21:40 -4.40345 55.15007 15272 ft 328 kts 111°
2026-04-17 21:41 -4.41167 55.17114 14841 ft 327 kts 113°
2026-04-17 21:41 -4.42023 55.19216 14412 ft 325 kts 113°
2026-04-17 21:41 -4.42865 55.21311 13987 ft 323 kts 113°
2026-04-17 21:41 -4.43690 55.23389 13567 ft 321 kts 113°
2026-04-17 21:42 -4.44508 55.25450 13149 ft 319 kts 113°
2026-04-17 21:42 -4.45322 55.27499 12733 ft 317 kts 113°
2026-04-17 21:42 -4.46133 55.29544 12316 ft 315 kts 113°
2026-04-17 21:42 -4.46937 55.31574 11903 ft 313 kts 113°
2026-04-17 21:43 -4.47734 55.33586 11492 ft 311 kts 113°
2026-04-17 21:43 -4.48536 55.35610 11079 ft 309 kts 114°
2026-04-17 21:43 -4.49326 55.37604 10671 ft 307 kts 114°
2026-04-17 21:43 -4.50107 55.39578 10269 ft 305 kts 114°
2026-04-17 21:44 -4.50879 55.41529 10038 ft 296 kts 114°
2026-04-17 21:44 -4.51614 55.43387 9866 ft 287 kts 114°
2026-04-17 21:44 -4.52354 55.45255 9505 ft 285 kts 114°
2026-04-17 21:44 -4.53098 55.47059 9153 ft 282 kts 119°
2026-04-17 21:45 -4.54105 55.48718 8814 ft 278 kts 126°
2026-04-17 21:45 -4.55159 55.50333 8476 ft 275 kts 125°
2026-04-17 21:45 -4.56178 55.51944 8147 ft 273 kts 124°
2026-04-17 21:45 -4.57193 55.53540 7822 ft 270 kts 124°
2026-04-17 21:46 -4.58205 55.55128 7497 ft 267 kts 124°
2026-04-17 21:46 -4.59199 55.56690 7177 ft 265 kts 124°
2026-04-17 21:46 -4.60178 55.58227 6862 ft 262 kts 124°
2026-04-17 21:46 -4.61153 55.59758 6550 ft 260 kts 124°
2026-04-17 21:47 -4.62129 55.61290 6235 ft 258 kts 124°
2026-04-17 21:47 -4.63078 55.62781 5933 ft 255 kts 124°
2026-04-17 21:47 -4.64019 55.64259 5631 ft 249 kts 124°
2026-04-17 21:47 -4.64944 55.65712 5322 ft 243 kts 124°
2026-04-17 21:48 -4.65831 55.67105 5103 ft 233 kts 124°
2026-04-17 21:48 -4.66688 55.68453 4859 ft 225 kts 124°
2026-04-17 21:48 -4.67502 55.69731 4688 ft 209 kts 124°
2026-04-17 21:48 -4.68301 55.70850 4591 ft 188 kts 138°
2026-04-17 21:49 -4.69381 55.71485 4535 ft 182 kts 165°
2026-04-17 21:49 -4.70624 55.71582 4331 ft 182 kts 191°
2026-04-17 21:49 -4.71781 55.71103 4131 ft 180 kts 213°
2026-04-17 21:49 -4.72806 55.70388 3925 ft 179 kts 214°
2026-04-17 21:50 -4.73825 55.69696 3721 ft 179 kts 213°
2026-04-17 21:50 -4.74859 55.68989 3523 ft 178 kts 213°
2026-04-17 21:50 -4.75871 55.68295 3329 ft 177 kts 214°
2026-04-17 21:50 -4.76770 55.67472 3127 ft 178 kts 240°
2026-04-17 21:51 -4.76996 55.66269 2951 ft 182 kts 277°
2026-04-17 21:51 -4.76493 55.65099 2746 ft 185 kts 305°
2026-04-17 21:51 -4.75756 55.64089 2615 ft 174 kts 303°
2026-04-17 21:51 -4.75091 55.63135 2394 ft 161 kts 304°
2026-04-17 21:52 -4.74438 55.62204 2177 ft 162 kts 303°
2026-04-17 21:52 -4.73783 55.61264 1953 ft 164 kts 303°
2026-04-17 21:52 -4.73134 55.60336 1728 ft 163 kts 303°
2026-04-17 21:52 -4.72483 55.59417 1535 ft 163 kts 304°
2026-04-17 21:53 -4.71815 55.58493 1345 ft 165 kts 305°
2026-04-17 21:53 -4.71146 55.57553 1107 ft 163 kts 303°
2026-04-17 21:53 -4.71032 55.57385 1059 ft 162 kts 303°
2026-04-17 21:53 -4.70485 55.56534 834 ft 159 kts 302°
2026-04-17 21:54 -4.69829 55.55613 622 ft 166 kts 305°
2026-04-17 21:54 -4.69161 55.54681 394 ft 165 kts 303°
2026-04-17 21:54 -4.68526 55.53741 155 ft 162 kts 304°
2026-04-17 21:54 -4.67875 55.52817 24 ft 158 kts 304°
2026-04-17 21:55 -4.67314 55.52010 19 ft 109 kts 304°
2026-04-17 21:55 -4.66981 55.51539 18 ft 62 kts 304°
2026-04-17 21:55 -4.66819 55.51310 18 ft 20 kts 306°
2026-04-17 21:55 -4.66726 55.51181 18 ft 22 kts 306°
2026-04-17 21:56 -4.66690 55.51093 18 ft 11 kts 245°
2026-04-17 21:56 -4.66743 55.51046 18 ft 9 kts 216°
2026-04-17 21:56 -4.66785 55.51002 18 ft 7 kts 231°
2026-04-17 21:56 -4.66812 55.50962 18 ft 5 kts 246°
2026-04-17 21:57 -4.66812 55.50931 18 ft 4 kts 287°
2026-04-17 21:57 -4.66799 55.50903 18 ft 4 kts 297°
2026-04-17 21:57 -4.66792 55.50879 18 ft 3 kts 254°
2026-04-17 21:57 -4.66808 55.50865 18 ft 3 kts 210°
2026-04-17 21:58 -4.66817 55.50860 18 ft 1 kts 210°
2026-04-17 21:58 -4.66818 55.50859 18 ft 0 kts 210°